Location: Wayah Bald
(35.1806°N, 83.5603°W)
Time: 12:28:48
(UTC-05:00)

Daily predictions for brighter satellites

Satellite Brightness Start Highest point End
(mag) Time Altitude Azimuth Time Altitude Azimuth Time Altitude Azimuth
Cosmos 1805 Rocket 3.8 18:16:05 10° SSE 18:20:22 50° E 18:24:42 10° NNE
Cosmos 2278 Rocket 2.5 18:14:50 10° NNW 18:20:31 75° WSW 18:26:09 10° SSE
Cosmos 1356 Rocket 3.8 18:18:41 10° SSE 18:22:22 38° E 18:26:05 10° NNE
Cosmos 1455 3.5 18:19:33 10° NNE 18:22:29 21° ENE 18:25:23 10° SE
Nadezhda 4 Rocket 4.4 18:19:39 10° SSE 18:25:24 40° E 18:31:14 10° NNE
SKYMED 2 3.6 18:23:12 10° NNE 18:27:31 60° E 18:31:47 10° S
Cosmos 1538 Rocket 4.0 18:23:43 10° S 18:28:57 70° ESE 18:34:17 10° NNE
Sich 1 3.5 18:27:02 10° SSE 18:31:12 41° E 18:35:23 10° NNE
Thor Agena Rocket 4.2 18:26:40 10° N 18:31:48 60° WNW 18:36:50 10° SSW
SPOT 3 Rocket 4.1 18:28:06 10° S 18:33:12 66° WSW 18:38:21 10° NNW
MSX 4.1 18:28:04 10° S 18:33:46 78° WSW 18:39:31 10° NNW
Cosmos 1703 3.2 18:30:40 10° S 18:34:32 76° E 18:38:26 10° N
Milstar 3 4.2 18:28:39 10° W 18:35:00 34° SSW 18:41:04 10° SE
Coronas F rocket 2.3 18:34:12 10° SSE 18:36:08 22° E 18:37:55 11° NE
Cosmos 2237 Rocket 4.1 18:35:55 10° WSW 18:40:44 29° WNW 18:45:35 10° N
Cosmos 2180 Rocket 4.4 18:34:50 10° N 18:41:02 75° E 18:47:16 10° S
Meteor 2-10 4.3 18:37:27 10° NNW 18:42:37 76° W 18:47:56 10° S
SJ-6B 3.9 18:39:32 10° SE 18:42:53 25° ENE 18:46:16 10° NNE
Cosmos 1680 Rocket 4.4 18:38:31 10° SSE 18:42:56 29° E 18:47:23 10° NE
Cosmos 1633 Rocket 3.2 18:38:46 10° SSE 18:43:00 49° E 18:47:15 10° NNE
Timation 1 Rocket 4.4 18:39:07 10° NNW 18:45:10 89° ENE 18:51:10 10° SSE
NOSS 3-1 (C) 4.4 18:42:06 10° SSE 18:46:31 24° ESE 18:50:00 14° ENE
Delta 2 Rocket 4.3 18:43:55 10° SSW 18:46:41 24° SSE 18:48:47 14° ESE
Cosmos 2369 Rocket 3.9 18:44:41 10° NNE 18:46:53 12° NE 18:47:04 12° NE
CZ-4 R/B 4.0 18:43:46 10° SSW 18:46:55 24° W 18:50:07 10° NW
Cosmos 1092 Rocket 4.3 18:42:50 10° SSE 18:48:46 45° E 18:54:44 10° NNE
SL-16 R/B 2.8 18:44:11 10° SW 18:49:43 58° WNW 18:55:18 10° NNE
Cosmos 1900 4.4 18:50:54 10° NNW 18:55:53 86° WSW 19:00:54 10° SSE
Cosmos 773 Rocket 4.0 18:55:09 10° SSW 19:00:19 90° NE 19:05:33 10° NNE
ALOS 3.2 18:56:54 10° SE 19:00:40 25° ENE 19:04:27 10° NNE
USA 215 4.1 18:56:43 16° E 19:00:47 31° NNE 19:06:20 10° NNW
Cosmos 1484 Rocket 4.0 18:58:26 10° S 19:02:13 46° W 19:06:05 10° NNW
Cosmos 2297 4.2 19:01:08 10° NNW 19:06:48 66° WSW 19:12:28 10° S
Meteor 1-28 Rocket 3.7 19:03:14 10° N 19:06:55 60° WNW 19:10:35 10° SSW
METEOR-M 4.1 19:02:51 10° SSE 19:08:07 63° ENE 19:13:25 10° N
BREEZE-M DEB (TANK) 4.2 19:06:01 10° S 19:09:41 34° ESE 19:15:09 20° ENE
Cosmos 292 Rocket 3.7 19:05:23 10° S 19:10:04 65° ESE 19:14:24 12° NNE
Cosmos 1862 Rocket 4.3 19:06:30 10° NNE 19:10:20 29° ENE 19:14:07 10° SE
FENGYUN 3A 4.2 19:05:36 10° SE 19:10:21 33° ENE 19:15:08 10° N
Genesis I 3.9 19:08:30 10° S 19:12:03 33° ESE 19:12:42 31° E
Cosmos 1707 Rocket 4.0 19:08:33 10° NNW 19:12:51 63° W 19:17:08 10° S
NOAA 12 4.0 19:07:46 10° SSE 19:12:59 76° ENE 19:18:15 10° N
COSMO-SKYMED 1 4.2 19:11:29 10° N 19:15:27 35° WNW 19:19:24 10° SW
Cosmos 2112 Rocket 4.0 19:14:34 10° S 19:19:39 57° ESE 19:23:17 19° NNE
Cosmos 1869 3.2 19:21:47 10° N 19:25:51 84° E 19:29:52 10° S
Cosmos 1943 3.5 19:21:24 10° S 19:26:42 43° ESE 19:28:35 33° ENE
Cosmos 1626 4.4 19:24:36 10° SW 19:27:45 25° WNW 19:30:55 10° NNW
Lacrosse 4 Rocket 1.1 19:26:23 10° NNW 19:30:27 81° ENE 19:33:02 22° SSE
ATLAS 5 CENTAUR R/B 4.2 19:28:09 10° N 19:29:30 13° NNE 19:29:30 13° NNE
Cosmos 1933 Rocket 3.4 19:27:08 10° S 19:31:33 81° E 19:35:24 14° N
Helios 1B rocket 4.4 19:37:11 16° SSE 19:37:11 16° SSE 19:38:15 10° SSE
Resurs 01 Rocket 1.7 19:31:45 10° SSE 19:36:05 53° ENE 19:40:25 10° N
SL-19 R/B 4.2 19:33:57 10° SSE 19:39:49 74° ENE 19:45:25 10° N
H-2A ROCKET BODY 3.3 19:19:22 10° W 19:42:38 58° S 19:45:25 32° SE
FREGAT/IRIS 4.1 19:43:33 10° S 19:46:25 37° W 19:49:18 10° NNW
Iridium 4 Rocket 3.9 19:44:11 10° SSW 19:48:32 50° W 19:52:39 10° N
Cosmos 1627 Rocket 4.4 19:42:44 10° S 19:48:57 89° E 19:55:06 10° N
Cosmos 1655 Rocket 3.9 19:43:29 10° S 19:49:47 68° E 19:56:06 10° NNE
Spot 2 Rocket 3.3 19:45:17 10° SSE 19:50:18 75° ENE 19:55:21 10° N
ISS -0.4 19:49:25 10° S 19:49:29 10° S 19:49:29 10° S
Cosmos 1470 Rocket 4.4 19:49:01 10° SSW 19:53:14 49° W 19:57:06 12° N
Tiangong 1 3.3 19:52:52 10° W 19:54:18 22° WNW 19:54:18 22° WNW
Cosmos 1242 Rocket 3.6 19:52:35 10° NNW 19:55:55 44° W 19:59:15 10° SSW
CZ-4C R/B 4.5 19:54:06 10° N 19:56:24 15° NNE 19:56:24 15° NNE
NOSS 3-1 (A) 3.2 19:53:52 10° SSW 19:59:31 70° ESE 20:00:06 65° E
FengYun 1-2 T 4.3 19:56:27 10° S 20:02:00 75° WSW 20:07:32 10° NNW
Cosmos 2026 Rocket 4.3 20:07:52 10° SSW 20:14:00 63° W 20:20:06 10° N
Cosmos 2369 Rocket 3.4 20:26:00 10° NNW 20:28:56 32° NNW 20:28:56 32° NNW
NOSS 3-1 (C) 4.2 20:31:22 10° SW 20:36:51 45° NW 20:37:29 44° NW
ALOS 4.2 20:34:00 10° SSW 20:37:58 27° W 20:41:56 10° NW
USA 215 3.4 20:44:05 70° WNW 20:44:05 70° WNW 20:49:54 10° NW
ATLAS 2A CENTAUR R/B 4.4 20:46:21 10° SW 20:46:28 11° SW 20:46:28 11° SW
CZ-3A R/B 4.3 20:52:46 10° WNW 20:57:23 44° SW 21:08:21 10° SSE
